SL-8 DEB, 21154

Orbit data source: Space-Track

SL-8 DEB, 21154 is space debris in LEO originally from a launch on Tue, 12 Feb 1991 UTC launched from the Plesetsk Missile And Space Complex (PKMTR). Debris objects in space refer to the collection of defunct objects orbiting the Earth. Examples of debris include non-operational satellites, rocket bodies, and fragments generated from explosions, collisions, or faulty payload assembly.

Loading next visibility...
Identifier
21154, 1991-009R
Orbit
LEO
Country
Flag of CISCIS
Related business
Manufacturer
Unknown
Mission
Spacecraft
Bus & Motor
Unknown
Mass
Unknown
Launch date (UTC)
1991-02-12 (35 years ago)
Launch vehicle
Unknown
Launch site
Plesetsk Missile And Space Complex (PKMTR)
Object type
Payload
Rocket body
Debris
Shape & HBR
Unknown shape, 0.2 m
Radar Cross Section
Medium (>0.1 m² and <1 m²)

Expand to show TLE details & history
Last TLE update: 2 days ago

TLE from 2 days ago
0 SL-8 DEB
1 21154U 91009R   26171.45720939 -.00000055  00000-0 -47453-3 0  9996
2 21154  74.2563 249.4577 0193127 324.7357  34.1015 12.01331953 50214
Epoch: 2026-06-20T10:58Z
TLE epoch observation values (Epoch: 2026-06-20T10:58:22.891Z)
Latitude
0.00002°
Longitude
176.19077°
Altitude
1,549.402 km
Speed
7.148 km/s
True Right ascension
16h 37m 49s
True Declination
0° 00' 00"
Sunlit
Object was in full shadow at epoch
Visualization orbit readout
Latitude
Unknown
Longitude
Unknown
Altitude
Unknown
Speed
Unknown
Apparent Right ascension
Unknown
Apparent Declination
Unknown
Sunlit
N/A
Visualization observer readout
Local Sidereal Time
02:30:10
Azimuth
Unknown
Elevation
Unknown
Doppler factor
Unknown
Orbital elements
Apogee altitude
1,828.261 km
Perigee altitude
1,517.291 km
Semi-major axis
8,050.913 km
Eccentricity
0.01931
Inclination
74.2563°
RAAN
249.4577°
Arg. of periapsis
324.7357°
True anomaly
35.36747°
Mean anomaly
34.1015°
Eccentric anomaly
34.73194°
Mean motion
3.00452 °/min
Orbital period
119.82 mins
BSTAR
-0.00047453
Loading maneuver chart data...
Computing Atmospheric mass density...
Loading historical data...
Loading historical data...
Loading historical data...
Loading historical data...
Loading historical data...
Loading historical data...
Loading historical data...

Documentation

Showing up to 5 results
|